Regional Weather Roundup
Issued by NWS Charleston, WV

Home | Current Version | Previous Version | Text Only | Print | Product List | Glossary Off
Versions: 1 2 3 4 5 6 7 8 9 10 11 12 13 14 15 16 17 18 19 20 21 22 23 24 25 26 27 28 29 30 31 32 33 34 35 36 37 38 39 40 41 42 43 44 45 46 47 48 49

000
ASUS41 KRLX 252310
RWRRLX
West Virginia Regional Weather Roundup
National Weather Service Charleston WV
600 PM EST SUN JAN 25 2015

Note: "fair" indicates few or no clouds below 12,000 feet with no
significant weather and/or obstructions to visibility.

WVZ003-260000-
Northern Panhandle of West Virginia

CITY           SKY/WX    TMP DP  RH WIND       PRES   REMARKS
WHEELING       LGT SNOW  33  31  92 NE7       29.76R VSB 3/4
$$

WVZ009-260000-
Northwest West Virginia

CITY           SKY/WX    TMP DP  RH WIND       PRES   REMARKS
PARKERSBURG    CLOUDY    37  35  92 NE3       29.76S
$$

WVZ006-260000-
Western West Virginia

CITY           SKY/WX    TMP DP  RH WIND       PRES   REMARKS
HUNTINGTON     CLOUDY    43  37  79 NE6       29.69S
$$

WVZ015-260000-
West Central West Virginia

CITY           SKY/WX    TMP DP  RH WIND       PRES   REMARKS
CHARLESTON     CLOUDY    45  35  68 SE5       29.70S
$$

WVZ022-031-260000-
North Central West Virginia

CITY           SKY/WX    TMP DP  RH WIND       PRES   REMARKS
CLARKSBURG     CLOUDY    38  37  97 CALM      29.74S FOG
MORGANTOWN     LGT RAIN  36  32  85 N5        29.76S FOG
$$

WVZ025-035-042-045-260000-
Southern West Virginia

CITY           SKY/WX    TMP DP  RH WIND       PRES   REMARKS
BECKLEY        CLOUDY    41  32  70 SE9       29.69F
LOGAN          MOCLDY    48  30  49 CALM      29.69R
BLUEFIELD      MOCLDY    43  32  65 CALM      29.71F
LEWISBURG      MOCLDY    40  32  75 CALM      29.74S
$$

WVZ047-260000-
Northern Mountains of West Virginia

CITY           SKY/WX    TMP DP  RH WIND       PRES   REMARKS
ELKINS         MOCLDY    36  34  92 CALM      29.72F
$$

WVZ052-260000-
Eastern Panhandle of West Virginia

CITY           SKY/WX    TMP DP  RH WIND       PRES   REMARKS
MARTINSBURG    LGT RAIN  42  35  76 E3        29.82R
PETERSBURG     CLOUDY    42  31  66 SE3       29.78R
$$


USA.gov is the U.S. government's official web portal to all federal, state and local government web resources and services.